Wind_Speed
13 12 12 11 11 11 11 11 10 9 8 8 8 9 9 9 9 9 9 8 8 9 9 9 9 9 9 9 9 9 11 12 13 18 20 14 13 14 11 12 17 20 25 28 23 20 21 18 17 17 17 13 9 11 12 9 6 2 1 0 1 1 2 1 1 2 3 5 6 8 9 9 7 9 14 14 13 15 13 14 13 8 13 16 17 28 30 27
12 11 11 11 11 11 12 12 12 11 10 9 9 9 9 10 10 9 9 9 9 9 9 10 10 10 10 9 9 10 12 12 14 19 14 7 10 16 15 15 19 22 25 28 25 23 23 22 20 20 18 12 7 8 7 5 4 4 0 1 2 2 0 2 2 2 2 7 8 8 9 9 10 13 17 12 10 13 13 15 17 18 19 17 23 29 27 27
13 11 11 10 10 10 11 12 12 13 12 11 9 9 9 10 10 9 9 8 9 9 9 9 10 10 9 9 9 10 11 12 15 17 9 8 13 16 18 18 20 23 25 26 24 21 21 22 22 21 18 10 7 7 4 3 3 4 1 0 2 1 1 2 3 2 5 12 10 8 8 9 11 13 15 12 10 11 10 14 17 21 25 25 28 27 26 27
13 12 11 11 10 10 11 11 12 13 13 12 10 9 9 9 9 9 9 8 9 10 9 9 10 10 9 9 8 8 10 11 11 12 8 11 15 17 20 19 21 24 25 25 22 18 17 20 22 20 16 6 5 7 4 5 4 2 2 2 2 2 2 3 3 5 11 16 13 10 9 8 9 10 15 19 12 4 10 20 21 25 31 31 29 28 27 26
13 12 12 12 12 12 12 12 12 13 13 12 11 10 9 9 8 8 9 9 9 9 9 9 9 9 9 8 7 7 6 5 3 6 6 8 13 18 21 20 22 23 25 25 21 19 17 20 21 17 12 4 5 6 3 9 7 2 0 1 1 3 3 4 6 9 13 17 14 12 8 7 8 9 18 20 8 5 15 24 25 30 35 34 32 29 27 25
13 13 13 13 13 13 13 13 14 13 13 12 11 10 9 8 7 7 8 9 10 9 8 8 8 9 9 7 7 6 3 1 2 3 2 5 11 17 20 20 23 22 24 24 22 20 19 23 21 14 9 3 5 5 3 11 10 1 0 1 2 2 4 6 10 12 15 15 12 11 9 9 9 8 16 14 4 8 19 23 26 31 34 35 32 29 27 26
13 14 14 14 14 14 14 14 15 14 14 13 11 9 8 8 7 6 7 9 10 9 8 8 8 9 8 7 7 6 9 7 1 3 2 2 7 14 19 22 23 23 24 24 24 22 21 24 21 14 8 2 5 6 4 9 11 2 0 1 5 5 6 9 12 13 14 13 10 13 12 8 7 8 11 9 5 11 20 23 27 30 31 32 30 28 27 25
14 14 15 15 15 16 15 15 15 15 14 13 11 8 7 7 6 6 7 8 9 9 9 9 8 9 7 7 6 6 10 7 3 4 3 3 7 13 20 24 24 23 23 24 25 24 24 23 21 14 6 3 4 5 5 6 7 3 1 4 5 5 8 13 15 15 15 13 11 12 11 6 8 10 9 8 11 15 21 25 28 31 30 29 28 27 25 24
14 14 15 16 16 17 17 17 16 14 14 13 11 8 6 6 6 7 8 8 8 9 9 9 9 8 7 7 5 5 8 6 6 5 4 3 7 12 18 22 24 24 23 23 23 24 25 22 22 17 5 6 5 3 10 7 4 7 7 6 5 6 9 13 16 16 17 16 14 10 8 6 9 11 6 9 18 19 23 28 29 30 29 28 27 26 25 23
13 14 15 15 16 17 17 17 16 14 13 12 10 7 5 5 6 7 8 7 7 9 9 9 9 7 7 6 4 2 4 7 8 7 6 5 5 10 15 19 23 25 23 22 22 24 25 22 23 19 6 4 4 5 11 7 5 14 13 8 8 7 7 12 15 16 16 14 15 10 6 6 8 6 3 11 22 23 26 29 29 30 29 28 26 25 24 22
13 14 15 16 17 17 18 17 16 14 12 11 9 6 4 5 7 8 7 6 7 8 8 9 9 7 7 7 7 5 4 7 8 7 7 6 5 7 10 14 19 23 23 22 23 23 22 20 20 16 5 2 5 4 9 8 10 19 16 9 8 6 6 12 14 14 13 8 13 15 8 4 5 2 2 17 25 26 29 29 28 29 28 27 25 24 23 22
13 14 15 16 17 17 17 17 16 14 11 10 8 5 5 6 7 7 6 6 6 6 6 6 6 6 6 9 12 8 4 6 8 8 8 8 6 5 6 9 13 17 21 22 23 23 20 17 17 14 4 4 5 4 4 10 15 18 13 8 7 6 6 9 9 10 7 5 16 19 9 1 1 3 6 22 28 28 31 29 27 27 26 27 25 24 23 22
13 14 15 16 17 17 17 17 16 13 11 8 7 6 7 7 6 6 6 5 5 6 5 4 4 4 5 9 10 7 6 6 8 8 9 8 8 8 8 9 11 12 17 19 20 23 20 16 16 15 6 5 4 4 3 12 16 13 7 4 6 5 2 3 3 9 8 8 17 13 4 3 3 1 10 25 29 29 29 27 27 25 25 25 24 24 23 22
13 14 15 16 17 17 16 17 16 13 10 8 7 7 8 7 5 6 5 5 5 5 5 3 3 3 6 8 4 5 9 8 8 9 9 8 8 10 11 12 13 13 15 16 16 20 21 17 14 12 9 8 6 4 4 9 8 6 4 2 2 2 2 3 2 8 9 8 11 5 1 6 4 1 14 26 29 30 27 25 26 25 24 24 24 24 23 23
12 13 15 16 17 17 16 16 15 12 9 7 7 8 8 6 5 6 5 5 5 6 5 4 4 4 8 9 3 5 9 9 8 8 8 7 7 9 12 14 14 13 14 14 13 15 18 17 12 8 8 7 5 2 3 4 1 2 3 1 1 1 4 2 5 4 5 7 6 1 2 5 2 4 17 26 28 30 27 24 25 24 24 24 24 24 23 23
12 13 14 16 17 16 15 15 14 11 9 8 9 8 7 7 6 6 6 5 6 6 5 5 5 4 7 6 2 6 9 10 8 7 8 8 7 7 11 15 15 13 12 13 12 11 12 13 10 8 8 3 1 4 4 3 1 1 1 3 2 2 3 4 4 5 1 7 4 1 3 4 2 6 17 25 26 27 25 24 25 24 24 24 24 24 24 24
12 13 14 15 16 16 14 13 13 11 9 9 9 8 8 8 7 6 6 5 6 6 6 7 7 7 5 2 3 5 5 7 7 6 7 8 7 7 12 16 15 13 12 13 14 12 11 9 6 6 5 1 2 5 4 1 2 1 2 2 2 4 5 4 3 6 4 7 3 2 3 3 5 9 17 24 26 24 22 23 24 24 24 24 25 24 24 25
12 12 14 15 16 16 13 12 12 10 10 9 9 9 8 9 9 7 5 5 5 5 7 6 4 4 3 3 2 2 1 3 6 7 6 8 7 7 13 15 14 15 13 12 11 10 9 6 2 1 1 2 3 5 4 3 4 4 3 3 2 3 5 4 4 6 8 6 3 5 4 5 8 9 14 23 26 23 21 23 23 24 24 24 24 24 24 25
13 12 14 15 16 15 12 11 11 8 9 10 11 10 7 10 11 7 5 6 7 4 4 4 3 2 3 5 5 3 3 1 4 5 6 9 11 11 10 10 15 19 15 8 6 9 7 3 1 2 2 2 5 6 5 5 6 7 5 4 4 3 2 3 3 6 8 5 3 6 5 7 9 8 11 18 24 23 21 21 22 23 24 24 24 24 24 26
13 13 13 14 15 15 11 10 9 7 9 11 13 10 7 10 8 4 7 12 12 8 8 9 10 10 9 7 5 3 1 4 4 5 9 11 12 12 9 11 15 15 11 6 4 7 8 3 2 4 5 5 6 7 5 3 5 6 4 3 5 3 2 3 4 6 7 4 2 4 5 8 11 8 8 12 17 20 20 19 20 22 24 24 24 24 25 26
14 13 13 14 15 14 10 9 8 7 9 11 12 10 7 9 5 5 11 14 15 12 11 11 11 13 10 5 3 4 3 3 6 6 10 12 11 10 8 10 9 6 5 6 5 4 7 4 5 6 7 7 6 6 5 3 4 6 3 4 4 2 2 2 5 8 5 2 3 4 5 8 10 7 6 8 10 14 19 20 21 23 24 25 26 25 26 27
14 13 13 13 14 14 10 8 7 7 8 9 10 10 10 11 8 8 9 10 15 15 10 8 9 11 7 3 4 3 2 2 6 7 10 13 11 7 7 6 5 4 3 4 4 3 4 4 7 7 6 4 2 4 5 3 4 5 3 4 4 3 3 3 7 9 3 1 3 6 6 7 7 6 6 5 5 8 15 20 24 26 26 26 27 27 28 28
14 13 12 12 13 14 11 7 7 7 8 8 8 10 13 13 11 10 6 6 12 13 7 6 7 8 6 3 1 4 5 3 4 6 9 14 12 8 8 5 5 4 3 4 5 4 3 5 6 6 6 5 2 3 5 4 3 2 4 4 3 6 5 1 6 8 2 1 4 7 5 5 6 4 3 3 2 5 10 14 22 28 30 30 31 30 30 30
14 13 12 12 12 13 10 7 6 6 7 7 6 9 12 12 11 12 7 4 6 7 4 4 4 6 5 1 1 5 6 4 4 4 8 14 13 8 7 5 5 4 2 4 6 5 4 5 3 7 6 5 4 3 4 4 1 2 4 5 5 7 5 4 7 6 3 1 4 8 4 3 7 8 5 3 1 3 6 9 17 26 31 32 32 32 32 31
14 13 12 11 11 13 11 7 4 5 7 7 6 9 12 11 11 11 7 2 3 5 3 2 3 3 2 0 1 4 5 5 6 6 8 13 13 8 4 5 5 2 3 5 6 3 5 5 5 7 3 4 5 3 4 5 3 2 4 6 8 9 7 10 12 8 3 2 5 8 4 2 7 11 9 5 2 4 4 6 14 24 27 27 29 31 31 31
13 13 12 11 11 12 10 7 5 7 9 7 7 9 11 10 10 9 5 3 1 4 3 1 2 1 1 0 3 6 3 2 6 8 10 10 10 8 5 3 2 2 5 5 3 2 2 3 6 6 4 5 4 3 4 5 5 1 5 7 8 9 11 14 14 8 3 2 5 5 1 1 5 9 9 7 6 6 4 5 13 22 24 25 29 31 31 31
13 13 12 12 11 10 11 9 8 8 8 7 7 8 9 8 8 9 5 4 2 3 2 1 1 1 1 2 8 8 2 2 5 8 12 12 10 9 5 2 1 2 4 4 1 2 2 2 4 5 5 5 4 4 4 6 7 2 5 8 12 10 12 14 11 5 2 3 4 4 0 2 2 6 8 8 8 8 7 6 9 19 25 27 30 31 31 32
13 13 12 12 11 10 11 9 8 7 6 7 8 8 7 6 7 6 3 4 2 3 2 2 1 2 1 3 9 6 1 3 4 6 13 14 10 7 4 4 5 4 2 6 3 5 2 4 4 5 4 3 5 5 6 9 5 3 1 7 10 9 10 9 5 2 2 4 3 5 3 1 1 3 7 8 8 9 11 9 8 17 25 28 30 31 32 33
13 13 13 12 12 11 10 7 7 7 7 10 9 8 8 8 6 3 4 3 3 3 2 2 2 2 1 4 6 3 0 2 2 6 12 13 9 4 2 6 7 4 2 4 4 6 3 6 7 7 5 4 6 6 8 9 4 1 7 11 9 9 8 6 4 3 3 2 3 8 6 2 1 3 6 9 9 10 11 8 8 15 22 26 29 31 32 33
12 12 12 12 12 11 8 6 8 9 10 11 9 9 10 6 2 4 4 1 1 3 3 3 3 1 2 3 1 3 0 1 2 8 9 8 7 2 3 7 5 4 0 2 2 6 4 4 4 4 6 8 7 7 8 9 8 8 10 11 9 6 5 5 3 3 3 2 3 9 9 2 0 4 7 8 6 8 9 5 6 11 17 22 26 29 31 33
10 12 11 11 11 10 8 8 9 11 11 9 10 11 7 2 3 5 2 1 1 3 4 3 2 2 4 4 2 1 1 1 2 8 5 4 4 2 3 3 1 3 3 4 2 5 4 1 2 5 11 8 4 2 3 8 12 9 6 6 7 3 3 4 3 4 3 3 3 8 9 2 1 4 6 6 4 8 10 7 8 11 16 22 25 27 30 32
9 11 10 9 9 8 8 9 10 12 11 9 12 10 1 1 3 2 1 3 1 2 2 2 2 2 3 3 1 2 1 1 1 5 3 3 4 2 1 3 3 1 3 2 2 4 3 3 3 4 10 10 7 3 2 5 7 6 5 6 6 2 2 3 2 2 1 4 2 8 9 2 3 3 3 6 7 11 14 14 15 15 19 24 24 24 26 30
8 10 9 8 7 7 7 8 11 10 9 12 13 5 4 4 3 1 2 2 1 3 1 1 1 2 3 2 1 2 2 1 1 3 2 2 3 2 2 1 4 3 0 3 1 3 2 5 3 1 5 9 9 5 3 4 4 6 7 6 5 3 2 2 1 1 2 5 2 7 8 2 3 1 1 4 7 15 20 20 19 20 22 24 23 21 21 25
7 8 8 7 6 5 6 8 10 8 10 15 9 3 6 4 1 2 3 3 3 2 2 1 1 4 4 2 2 2 2 2 1 3 3 3 3 0 2 3 1 3 2 2 1 1 2 3 4 4 3 7 10 7 8 7 6 6 6 5 6 5 4 4 4 2 2 2 1 6 5 2 1 1 4 7 8 16 22 21 19 21 22 22 22 20 18 20
6 7 7 6 4 5 6 8 9 9 14 15 6 5 6 1 3 2 2 4 2 2 4 3 4 5 5 3 3 2 2 2 3 4 4 3 3 0 1 2 1 2 3 2 2 1 2 4 7 4 2 7 9 7 9 10 6 4 3 5 4 5 5 3 3 4 4 2 2 3 2 2 2 3 5 2 7 13 19 22 22 21 19 19 19 19 18 17
4 6 6 5 5 6 6 8 8 10 15 11 5 5 2 1 2 2 2 3 1 1 3 4 6 5 3 4 4 5 3 3 3 4 4 2 1 2 1 3 2 2 4 3 2 1 1 4 7 4 1 6 9 8 10 10 7 2 2 4 3 3 6 5 3 3 3 3 1 1 1 2 1 3 4 5 9 11 13 17 21 21 18 17 17 18 17 16
3 5 5 5 7 5 5 8 9 11 12 6 6 2 1 2 2 4 2 4 2 1 3 3 3 2 1 2 3 5 4 4 3 3 3 2 1 3 3 4 2 1 3 3 2 2 2 3 6 1 2 5 7 10 6 5 8 6 3 6 2 3 3 4 3 2 3 1 1 1 1 2 0 1 1 6 10 11 10 11 16 20 19 18 16 17 18 16
3 4 5 6 5 4 5 7 8 9 7 5 3 1 1 1 2 4 5 5 1 3 5 3 0 1 2 1 2 5 3 2 3 3 2 2 1 1 2 3 3 2 2 3 1 1 3 1 7 3 3 3 3 9 4 2 3 5 6 6 4 2 1 1 3 2 2 1 2 2 1 2 2 2 2 6 9 11 11 11 11 14 18 19 17 17 19 17
5 3 3 5 5 4 6 7 7 8 5 4 2 1 1 2 4 4 6 3 1 4 4 2 1 2 2 2 0 3 3 2 2 3 2 1 1 0 2 1 3 5 4 2 3 0 2 1 4 4 2 2 3 4 4 1 3 3 6 6 2 2 4 2 2 3 4 2 2 0 1 2 3 2 2 6 7 9 11 11 9 11 16 21 20 20 21 21
7 3 2 5 6 5 5 5 6 5 4 2 1 2 1 2 4 9 11 4 2 4 2 0 2 3 2 1 0 0 3 3 2 3 2 1 0 2 1 1 3 6 6 2 3 0 1 2 3 5 3 1 1 1 5 7 4 4 5 4 1 2 3 2 2 1 4 4 3 2 0 3 2 1 2 4 6 7 9 10 9 10 14 18 19 19 22 23
7 3 2 5 7 5 5 4 3 3 2 0 1 2 2 2 3 10 13 8 5 5 2 2 3 3 2 1 1 1 2 4 3 3 2 1 1 1 3 4 3 4 4 5 3 1 1 1 2 3 3 1 4 4 5 6 6 6 6 6 5 3 4 4 1 1 2 3 3 4 2 4 1 1 1 4 6 6 9 10 9 10 13 15 15 16 19 22
5 3 3 6 6 4 4 3 1 2 1 1 1 3 4 3 3 7 11 9 6 4 3 3 3 2 2 2 1 2 3 3 3 2 2 1 3 3 5 11 7 2 1 1 2 2 2 3 1 2 1 3 6 5 1 3 3 5 4 5 5 4 5 6 4 3 2 2 1 3 1 3 2 1 1 6 8 10 13 14 12 11 12 15 16 15 16 18
4 2 1 4 4 3 3 2 3 3 1 2 2 3 3 2 2 4 8 8 5 3 4 3 1 2 2 1 1 2 3 2 2 2 2 1 1 0 7 12 8 1 2 1 2 1 2 3 2 2 4 4 6 6 4 2 4 5 2 2 4 3 3 5 5 4 4 3 2 3 0 3 1 2 5 9 11 12 14 14 14 12 11 13 17 18 18 18
4 2 1 3 3 2 1 0 1 2 4 4 4 3 2 2 4 5 4 5 4 2 2 2 2 2 2 2 3 2 1 2 2 2 1 2 1 4 9 13 10 4 3 2 3 2 2 2 3 2 3 4 4 5 5 5 3 2 1 2 1 4 7 5 3 4 3 4 4 4 2 3 2 4 6 9 10 10 10 12 13 12 10 12 15 18 19 18
3 1 2 3 1 3 1 1 2 2 3 3 3 3 3 3 5 6 4 4 6 3 2 2 2 2 3 3 4 4 3 4 2 2 2 1 1 4 10 15 12 7 4 4 3 2 2 2 2 3 3 3 3 2 1 3 3 1 0 1 0 5 8 6 3 4 2 4 5 5 3 3 6 7 7 7 7 7 8 11 13 13 12 13 14 15 15 15
2 0 2 4 2 2 2 2 2 1 2 1 2 2 3 2 3 7 6 5 9 8 5 4 3 2 4 5 5 5 6 4 3 2 2 2 3 3 7 12 15 13 9 8 6 1 3 3 2 5 5 4 5 6 4 1 1 1 0 1 1 3 5 6 5 3 4 4 3 3 5 9 11 10 9 9 9 8 8 10 12 12 13 13 13 12 12 13
3 1 1 3 2 3 3 5 7 3 3 2 2 1 2 1 2 6 7 5 7 8 5 5 6 3 2 3 4 3 5 5 5 4 2 3 3 4 6 8 14 18 12 9 9 3 4 4 3 4 4 4 6 6 6 2 2 1 1 1 1 2 5 7 4 5 7 7 2 5 9 13 14 13 12 11 10 9 9 9 11 12 12 13 12 12 13 13
3 1 1 2 1 0 1 5 9 6 2 1 3 1 2 4 3 3 3 3 7 8 5 4 8 6 2 1 4 2 4 4 5 3 2 3 3 4 6 5 10 17 13 8 9 5 5 2 4 1 2 1 0 5 5 1 2 2 4 3 1 1 5 6 3 4 7 5 5 9 12 12 13 14 12 10 11 12 13 13 13 13 13 14 14 13 13 15
4 2 1 3 1 3 2 8 10 5 2 1 4 2 2 4 4 1 1 3 5 7 5 4 6 8 5 3 5 3 2 2 2 3 1 2 3 2 4 3 6 14 12 6 6 5 4 2 4 2 2 5 7 7 7 5 4 5 7 6 5 2 3 6 4 3 4 2 4 13 13 7 7 11 11 12 15 17 17 16 15 15 15 16 17 15 14 16
5 3 2 3 2 3 4 7 5 2 3 3 3 2 1 3 3 1 3 4 2 3 5 5 2 5 6 6 7 4 1 4 3 1 1 2 2 1 1 1 3 8 10 4 4 5 3 1 4 2 3 5 8 10 9 7 5 7 8 9 8 6 5 5 5 5 6 5 7 13 11 5 6 12 15 17 19 19 18 18 16 17 19 20 20 18 16 18
4 4 6 3 2 4 5 4 2 4 2 3 3 2 1 1 2 3 4 6 4 1 2 5 4 2 5 8 8 3 3 4 4 3 2 2 2 1 1 1 3 2 6 4 3 5 3 1 3 4 4 3 6 9 10 7 5 7 9 10 8 5 2 1 1 3 5 9 11 11 8 5 9 15 17 19 21 19 18 19 20 19 21 23 23 21 18 18
4 3 6 3 1 4 4 3 3 4 1 1 2 2 1 3 3 3 4 6 7 6 4 6 6 3 5 6 5 4 6 5 3 4 2 3 6 8 7 6 6 4 2 1 2 3 2 2 2 3 3 3 6 8 7 6 7 5 5 6 5 3 0 0 2 1 7 12 10 6 5 7 12 16 16 15 18 18 19 21 23 22 23 25 25 23 21 19
Wind_Direction
359 358 358 356 355 351 348 343 337 332 325 319 315 313 310 302 297 294 293 290 291 292 290 290 287 288 288 291 289 278 273 264 262 259 249 236 221 218 203 190 191 184 182 184 183 178 171 167 162 160 163 167 181 192 202 223 238 224 176 266 289 243 205 193 165 134 127 136 141 164 155 133 122 115 126 127 121 126 117 115 125 116 137 154 162 160 156 157
1 1 1 2 0 357 353 348 343 338 330 324 315 312 310 304 296 289 291 292 293 293 289 289 287 288 291 295 295 289 282 273 270 261 242 221 218 211 199 188 187 186 183 184 184 181 175 168 163 161 164 172 183 187 200 220 220 214 124 34 279 270 319 27 70 49 79 137 138 150 144 128 126 129 135 129 115 119 104 108 118 116 126 144 154 156 157 162
2 3 4 5 5 2 359 354 349 341 335 330 320 313 310 306 298 288 286 289 294 294 290 289 288 289 293 296 299 297 290 289 279 264 241 214 210 196 195 193 185 185 185 185 184 182 181 174 167 165 164 167 184 184 194 210 217 215 188 242 262 254 129 89 119 99 119 139 132 134 137 122 127 140 144 133 119 123 121 128 127 125 133 144 153 157 161 166
1 2 3 3 2 2 360 356 351 344 339 332 323 315 308 308 300 289 285 288 293 292 291 290 289 290 293 295 299 302 303 309 284 258 248 223 207 193 193 192 186 184 185 186 182 177 179 177 170 166 165 160 184 183 197 208 204 176 189 246 229 190 154 111 130 139 138 144 136 131 134 122 131 146 146 136 126 137 156 154 151 147 146 150 155 160 165 170
0 1 0 359 357 355 352 351 348 344 341 334 326 315 309 310 300 290 285 289 292 290 291 288 288 290 293 296 295 300 316 334 272 230 239 218 206 200 192 188 185 183 186 186 177 172 175 176 168 162 168 156 160 173 218 207 194 119 139 293 166 184 167 116 133 140 140 142 133 127 129 131 129 136 150 147 142 184 168 163 163 158 155 158 160 162 168 172
360 359 358 356 353 350 347 345 342 340 340 337 328 315 310 310 301 290 286 293 295 290 289 283 286 288 292 295 291 290 264 236 127 144 192 203 200 200 191 184 182 181 187 185 177 173 171 170 165 158 167 168 168 185 224 199 192 111 209 278 38 148 165 136 136 137 139 135 128 129 123 127 117 120 155 154 130 171 166 164 162 158 159 161 162 165 170 174
359 358 357 355 352 349 345 342 338 336 336 335 329 318 312 310 302 292 290 297 296 291 288 282 285 285 292 289 283 280 255 247 136 108 106 176 186 190 187 180 179 181 184 184 178 173 168 168 168 160 157 173 196 207 226 192 182 136 243 186 75 110 155 145 136 132 131 119 117 128 117 114 110 123 158 148 120 160 163 161 159 156 158 161 163 168 172 177
360 358 356 354 351 349 345 342 339 334 332 331 329 320 312 311 301 295 298 299 293 290 286 284 286 282 288 281 276 289 265 246 163 140 117 155 176 179 182 177 178 181 183 185 179 171 167 168 173 168 161 219 209 206 201 173 170 166 169 153 108 122 147 142 132 124 123 118 121 114 95 88 107 126 146 139 144 159 160 157 155 155 158 163 166 170 174 178
0 358 356 354 351 349 345 343 339 335 330 327 327 320 312 309 302 304 305 302 293 288 287 286 285 280 280 267 269 295 263 215 172 170 142 158 171 174 182 178 178 182 183 184 180 173 171 171 176 175 182 221 225 212 177 160 180 182 165 155 131 129 134 129 123 121 122 130 141 116 76 90 112 123 123 142 154 159 158 154 154 157 160 165 169 174 177 180
1 358 357 355 353 351 347 345 341 336 330 325 324 319 313 308 309 312 308 307 295 289 289 286 283 278 269 249 229 264 230 186 184 189 174 174 163 170 185 183 181 184 184 182 179 178 180 179 179 182 193 217 254 241 187 178 178 160 145 130 123 123 126 119 114 120 118 127 150 132 77 95 113 118 110 151 157 158 156 152 156 160 163 167 172 177 181 184
360 360 358 356 355 353 351 348 344 339 331 326 327 327 323 318 318 317 313 312 302 297 292 287 287 277 264 240 214 210 183 170 183 186 178 181 171 164 180 189 189 188 188 187 183 182 185 182 178 188 209 285 302 267 195 184 160 147 133 114 116 112 112 114 113 125 118 120 145 123 85 74 86 42 145 155 158 160 156 154 159 162 164 168 173 180 185 189
359 0 359 358 357 356 354 352 348 344 339 333 336 344 335 328 324 321 321 314 311 310 297 293 292 273 261 248 236 222 182 165 175 178 176 181 191 185 178 189 195 196 196 194 189 184 183 180 181 190 213 308 312 324 193 166 145 142 133 115 128 122 103 105 115 137 121 117 137 120 91 42 55 5 158 159 159 160 157 156 161 163 165 169 173 181 187 192
358 0 1 0 358 359 358 355 354 352 350 346 350 350 338 336 333 332 331 316 321 323 307 300 286 276 266 257 248 223 201 182 169 175 181 183 193 199 196 191 194 203 206 204 197 187 180 178 187 200 237 302 315 347 134 140 132 136 127 108 137 129 76 10 98 130 111 128 142 126 103 199 223 327 157 161 160 158 156 159 163 164 167 169 174 182 188 194
357 360 2 1 360 2 2 358 357 359 1 360 357 349 342 341 339 344 339 319 325 327 318 291 273 291 269 263 261 211 206 187 170 173 178 185 191 199 202 198 196 200 206 207 202 194 187 183 190 211 250 278 290 329 105 126 125 127 100 80 124 120 151 304 277 132 114 152 157 116 120 179 215 178 157 164 162 158 157 161 166 167 169 171 176 183 189 196
354 358 0 1 360 2 6 1 357 1 4 1 357 351 348 346 341 345 335 318 320 323 325 290 275 312 289 278 271 194 194 181 176 177 189 207 210 207 201 197 198 198 200 197 190 195 196 197 205 233 275 281 281 329 96 108 105 126 106 124 321 87 146 170 227 182 112 164 179 71 134 160 203 160 159 166 165 161 160 163 169 170 173 175 179 186 192 198
351 355 358 359 358 0 6 4 357 355 356 356 356 354 356 353 340 335 323 315 313 313 321 292 279 314 301 282 184 175 191 192 187 185 207 224 231 223 199 193 196 196 195 183 165 163 180 199 218 248 275 282 145 114 95 69 104 192 98 153 175 137 154 147 202 265 65 141 174 228 154 136 164 160 159 167 167 163 161 165 171 173 176 179 182 188 193 198
348 351 354 356 356 356 1 3 357 350 351 355 357 359 2 358 347 330 310 308 312 309 310 296 288 298 286 228 150 165 193 214 218 220 218 216 232 228 191 182 188 191 182 168 159 149 158 187 215 249 259 203 129 122 106 113 196 237 64 128 170 144 165 154 169 250 197 146 166 181 137 122 146 145 155 169 168 164 164 167 173 175 179 182 185 191 195 199
345 347 351 354 353 352 356 360 357 351 355 359 358 1 3 359 350 326 303 309 312 309 309 295 289 305 262 211 198 185 302 271 233 235 215 194 188 173 172 173 176 173 155 146 161 162 167 196 200 240 276 106 146 140 136 194 187 172 137 128 162 152 176 176 157 190 175 153 139 140 124 119 137 134 148 168 171 167 169 172 175 177 181 185 188 193 197 202
343 343 348 352 351 349 350 355 356 359 7 7 1 1 4 356 345 320 304 304 297 298 305 274 244 293 273 263 286 301 305 256 212 220 189 168 153 144 147 153 157 153 142 133 162 173 171 186 123 146 223 179 165 163 173 202 178 161 144 136 168 169 167 161 129 150 155 140 128 147 142 135 147 145 139 160 172 173 172 176 179 181 184 187 191 196 200 205
341 341 346 351 349 346 347 349 352 3 13 13 10 12 11 357 348 320 315 304 294 292 286 276 267 273 283 286 299 329 287 192 201 198 170 161 153 147 138 141 145 141 137 135 155 181 171 166 195 194 208 192 177 181 172 155 137 134 122 144 173 154 113 120 120 140 148 141 161 163 144 146 158 153 127 143 165 173 175 177 182 185 186 189 193 198 202 206
341 339 344 349 348 347 344 340 345 0 9 14 19 27 22 5 355 315 320 311 306 308 295 288 277 273 282 286 287 337 344 202 199 186 170 168 157 148 154 152 137 124 139 134 123 158 158 175 224 211 206 197 184 176 146 93 115 137 150 162 157 134 113 92 118 140 148 138 180 177 145 155 163 144 129 145 155 172 180 181 184 188 189 191 195 199 203 207
339 336 342 348 349 348 341 330 336 349 3 16 22 25 14 3 354 325 319 305 308 315 305 288 271 272 285 284 274 291 306 225 196 191 178 174 169 159 167 153 119 123 119 109 105 106 143 217 237 214 200 189 145 122 127 119 136 149 163 157 151 140 112 83 122 133 131 39 161 179 164 159 164 136 127 148 142 165 182 186 188 189 190 192 195 199 204 207
336 332 338 347 349 348 341 325 326 339 359 11 10 10 2 356 353 343 324 276 300 311 297 272 260 276 304 312 249 180 185 206 193 193 183 179 180 171 157 125 103 123 95 117 140 133 165 239 235 186 166 158 106 90 121 109 100 145 159 152 161 163 146 134 145 133 106 5 161 174 164 144 157 138 101 109 126 171 184 195 195 192 193 196 198 201 204 206
333 328 333 344 348 347 342 325 316 329 349 351 346 353 352 345 344 340 327 277 295 306 296 287 279 290 307 345 128 162 171 190 191 183 186 183 172 161 161 130 104 118 137 157 149 148 208 247 175 135 151 162 130 119 133 125 133 239 181 162 160 167 152 108 131 123 89 99 160 162 158 162 165 166 172 146 143 216 205 208 204 198 198 198 199 202 205 206
330 324 326 338 344 345 346 337 318 315 327 326 321 335 339 335 332 327 330 342 296 303 322 324 316 307 277 243 154 166 162 186 197 176 181 186 169 149 148 136 121 153 173 145 132 151 252 244 148 117 136 155 133 154 176 160 163 280 229 197 171 159 129 113 128 131 127 177 183 172 176 202 170 172 182 169 171 232 224 224 213 204 201 199 199 203 206 208
326 319 320 329 338 343 343 341 330 313 312 306 306 327 329 327 326 317 330 40 347 313 339 329 337 29 153 115 142 145 129 203 201 183 180 190 180 154 133 125 102 161 170 141 133 175 265 208 144 126 134 136 146 207 219 165 132 243 237 190 157 141 128 135 147 150 156 176 182 187 195 136 169 179 182 173 185 214 226 237 220 207 202 200 202 204 206 207
320 314 314 320 329 338 335 335 331 315 307 296 301 321 321 318 321 317 341 52 17 314 315 297 340 116 114 103 144 138 84 213 182 188 186 183 182 165 155 187 105 148 170 126 149 233 168 135 118 120 121 120 160 219 226 159 130 246 243 161 148 141 140 153 158 157 134 105 150 200 192 72 176 186 178 175 188 210 222 235 223 207 202 202 205 207 207 208
316 308 307 313 321 330 331 336 339 328 315 305 310 317 316 317 317 324 42 81 346 315 291 298 314 197 136 136 161 153 103 155 148 195 190 175 172 158 148 196 168 174 179 125 179 260 160 154 169 152 138 148 192 217 199 163 149 264 261 127 140 130 131 148 136 109 107 101 159 206 182 83 275 179 165 180 196 208 214 220 216 204 202 203 205 208 209 209
312 302 301 307 314 324 332 341 346 343 326 315 316 313 312 316 317 360 75 82 333 323 274 317 333 248 131 131 177 214 111 144 124 179 183 173 172 151 132 190 165 155 192 127 184 249 229 195 192 156 149 192 215 215 183 168 177 155 96 90 93 86 89 99 81 70 72 71 190 197 185 152 245 185 171 193 209 208 207 211 208 201 201 202 204 207 209 208
308 296 296 302 312 325 333 338 339 335 326 318 313 310 314 316 351 61 53 29 312 291 277 305 310 286 98 111 214 297 239 213 129 141 158 162 167 149 127 172 153 123 44 26 199 242 262 228 200 155 187 205 204 203 185 165 149 119 98 89 78 67 68 68 54 67 73 319 227 186 181 153 216 207 190 199 206 193 192 192 190 189 190 195 200 204 206 206
301 290 289 296 310 319 321 328 333 329 324 320 314 315 317 324 76 80 67 262 253 298 313 294 277 71 97 135 174 300 54 300 119 126 135 132 135 93 86 140 148 74 18 355 289 284 317 205 196 213 212 198 155 172 171 150 142 114 101 117 96 46 25 44 7 33 87 266 249 170 167 139 250 226 209 206 178 171 182 182 181 174 171 181 190 198 202 203
293 282 281 292 303 307 315 326 327 325 323 322 322 319 301 88 30 77 249 302 306 268 289 267 261 85 116 139 166 226 140 30 63 108 120 116 126 184 158 166 184 78 346 284 267 328 325 218 222 224 211 184 142 98 84 147 154 113 116 132 102 58 17 48 344 1 150 265 274 156 157 162 247 236 212 204 183 178 186 188 182 167 165 176 180 186 193 198
285 273 274 286 292 298 314 322 321 323 327 327 326 330 104 76 27 266 268 308 256 234 234 260 275 98 123 108 326 255 120 78 283 86 80 92 111 211 259 209 160 127 218 211 274 351 310 272 269 174 212 188 160 135 131 171 174 136 142 142 112 112 98 92 287 331 248 279 312 147 157 225 259 223 225 235 206 187 189 189 178 166 170 175 170 170 180 192
281 264 269 275 277 299 313 314 314 322 335 334 335 58 71 57 290 291 299 255 250 284 342 347 52 49 48 67 284 276 81 40 13 83 51 43 64 349 331 346 122 111 116 162 226 146 155 266 233 182 205 185 172 172 162 153 158 168 163 139 139 154 145 162 191 185 196 257 63 139 163 222 218 263 279 257 215 183 181 180 167 164 172 171 166 166 168 180
281 256 263 265 268 303 306 303 312 327 336 338 0 77 61 43 255 289 271 256 277 328 327 357 70 53 9 339 318 343 93 53 31 63 44 51 89 93 312 314 337 96 119 160 249 171 142 247 246 244 206 165 174 183 149 135 156 201 147 113 154 182 154 142 163 157 151 133 114 162 197 233 202 287 306 230 164 153 156 159 155 157 166 166 168 171 167 172
282 254 257 264 284 302 300 298 310 327 335 347 50 68 59 229 246 200 220 283 320 348 333 8 54 58 350 328 334 351 38 57 54 57 30 40 96 8 316 264 296 115 142 168 222 181 97 267 275 309 251 186 186 178 157 153 160 149 119 159 201 165 129 115 109 97 101 118 196 207 288 309 267 306 350 94 126 134 140 151 154 157 166 172 175 178 177 176
284 266 268 286 297 296 290 301 313 323 334 13 77 77 217 233 219 194 270 313 279 74 72 61 38 56 359 334 332 336 5 33 41 62 41 10 347 345 328 285 268 166 194 202 212 187 135 276 292 284 207 232 181 151 147 156 145 131 172 190 168 79 86 102 110 61 57 116 264 304 284 286 261 283 37 110 132 149 153 159 162 166 176 185 189 188 189 187
309 283 294 312 309 286 290 313 323 322 338 40 59 359 189 307 256 232 298 317 292 55 75 98 77 118 120 70 334 325 355 42 25 55 81 33 351 325 353 308 260 267 271 201 175 17 114 293 294 244 202 285 106 118 96 25 116 144 165 157 123 126 169 103 121 134 106 126 279 311 318 260 194 196 180 148 150 158 159 160 163 171 181 190 200 203 202 201
340 318 343 358 346 311 314 328 328 330 6 62 31 319 170 280 295 329 342 336 88 66 69 90 83 96 98 103 290 329 28 93 92 82 89 60 22 52 62 350 277 318 336 142 147 306 103 101 287 268 237 318 30 94 146 159 27 60 127 133 103 138 162 154 136 149 138 148 231 261 350 262 215 220 202 166 159 154 155 159 161 167 177 188 201 207 209 210
354 360 29 14 2 338 338 340 332 353 41 88 214 249 286 276 308 4 21 34 60 53 73 119 69 81 72 63 152 341 45 53 97 100 86 95 339 317 16 59 282 312 336 35 105 119 66 92 256 290 328 106 134 157 176 167 133 106 129 152 145 77 125 131 90 88 123 144 179 144 254 260 230 262 242 151 143 153 156 154 154 163 174 183 192 196 202 209
6 20 350 2 9 359 1 357 347 34 63 348 247 254 305 323 326 4 27 50 60 52 86 130 106 108 122 71 28 28 54 30 40 84 90 71 78 328 336 346 297 285 339 24 37 34 103 120 216 298 4 128 228 238 191 180 163 145 155 173 167 130 123 127 136 303 106 129 164 151 194 261 267 305 259 131 129 145 139 128 129 147 165 175 181 183 191 201
17 32 354 4 15 8 14 16 6 77 111 255 302 267 298 337 343 1 19 37 53 45 46 76 95 101 121 131 48 48 81 57 22 68 130 156 132 173 319 342 335 270 111 43 301 247 160 104 85 278 238 210 260 278 205 197 170 127 141 165 151 131 122 134 178 207 111 92 108 111 116 280 287 323 112 120 120 128 132 133 133 140 155 165 173 178 181 189
7 17 8 356 350 351 23 6 339 5 307 270 305 286 290 349 14 13 16 24 32 29 31 31 28 55 64 101 83 59 72 77 51 70 157 191 117 286 340 2 14 27 82 41 299 283 107 74 50 307 300 310 307 323 2 33 90 92 61 70 121 147 132 138 167 159 133 152 136 86 44 269 266 88 115 123 124 133 142 146 143 139 143 153 166 177 179 181
346 351 36 358 303 254 98 131 269 321 297 309 353 341 326 44 41 27 18 15 8 19 69 30 351 37 41 60 77 64 55 90 73 27 87 149 58 3 15 29 39 42 36 6 281 297 26 49 70 53 8 3 353 355 360 355 26 72 325 341 83 119 105 107 112 79 111 182 150 130 204 246 128 112 127 130 130 138 142 136 133 132 133 146 162 172 173 171
340 331 23 31 195 195 114 143 178 206 283 339 17 339 339 53 42 31 42 32 20 42 95 15 343 36 24 37 58 29 32 86 94 3 37 82 275 355 22 31 37 34 10 345 297 280 57 78 103 110 129 154 166 177 266 309 316 323 312 326 108 123 120 126 113 86 142 187 144 142 191 180 139 138 146 145 137 138 134 125 124 127 135 151 159 161 158 153
22 19 347 22 95 125 60 46 59 114 219 94 59 350 20 76 22 24 48 44 24 37 59 22 356 41 36 43 58 22 9 37 69 65 47 349 285 305 5 23 27 20 9 7 4 63 104 65 104 129 137 173 193 218 246 258 242 260 303 84 120 133 117 109 113 143 173 159 157 204 170 151 156 160 160 158 151 147 144 129 120 122 134 148 149 143 142 140
38 72 342 2 14 29 49 39 28 19 218 145 101 309 18 52 335 16 38 46 26 33 57 35 16 36 42 53 79 35 353 8 32 39 5 316 279 293 343 22 24 14 14 18 12 52 107 24 356 115 125 176 201 245 269 250 185 223 15 47 126 141 110 106 142 191 154 136 199 222 168 157 168 171 165 164 158 151 152 141 127 126 132 137 134 129 130 133
42 127 87 38 342 309 62 346 347 348 284 116 98 122 26 51 56 24 15 33 26 23 49 45 7 2 337 108 112 76 348 14 23 359 321 333 331 331 350 14 16 11 18 27 18 58 116 17 326 40 70 90 351 310 315 63 117 60 43 34 359 186 141 130 163 183 144 151 207 184 167 167 171 167 159 158 159 153 152 149 137 129 128 131 128 119 117 123
59 131 107 36 296 211 251 310 317 339 341 43 75 68 66 76 75 45 334 33 21 7 41 77 354 351 1 64 105 102 19 71 38 333 293 1 357 10 13 351 349 5 16 30 24 50 109 8 317 305 23 19 11 357 5 41 59 48 40 32 24 34 129 119 111 98 90 88 161 152 152 154 151 151 149 154 158 151 145 142 135 129 129 133 130 118 114 123
60 68 1 350 299 288 328 322 322 55 28 22 70 67 75 88 86 80 27 47 60 347 35 88 46 4 31 51 77 95 168 164 147 326 177 111 22 19 51 281 287 356 11 23 2 12 67 17 308 1 42 357 356 3 2 15 60 65 44 26 28 43 61 81 107 106 76 71 118 131 132 126 134 140 142 148 151 146 141 140 136 135 138 139 134 126 124 131
60 37 7 2 335 349 357 345 36 92 33 16 110 141 96 112 132 113 53 37 72 93 93 133 141 38 34 44 56 49 286 217 194 279 268 160 103 105 99 215 215 342 7 16 359 1 48 45 330 39 56 326 343 4 349 348 46 54 31 13 8 18 42 76 152 150 127 124 125 129 141 162 153 143 140 144 148 148 147 145 142 142 142 140 136 129 127 129
35 12 355 357 335 355 4 347 29 87 124 260 165 151 148 198 198 125 79 29 38 69 120 161 150 86 40 37 30 346 318 305 305 333 330 127 106 100 94 82 84 81 49 47 35 19 73 87 21 56 72 302 326 350 340 2 36 16 347 350 337 316 260 120 335 17 139 139 140 158 173 155 148 146 144 146 151 152 154 151 148 146 143 140 137 131 126 125
Height
1507 1506 1505 1504 1503 1503 1502 1501 1501 1500 1499 1499 1498 1498 1497 1496 1495 1495 1495 1495 1495 1494 1494 1493 1493 1493 1492 1492 1492 1491 1491 1490 1490 1489 1486 1485 1489 1491 1492 1494 1495 1496 1497 1498 1501 1502 1504 1506 1508 1509 1511 1513 1514 1514 1515 1516 1516 1517 1518 1523 1525 1521 1520 1516 1515 1516 1515 1517 1518 1519 1520 1521 1523 1525 1527 1528 1532 1534 1534 1535 1536 1538 1539 1541 1543 1545 1547 1549
1507 1506 1505 1504 1503 1502 1501 1501 1500 1499 1499 1498 1497 1497 1496 1496 1495 1494 1494 1494 1494 1493 1493 1493 1492 1492 1491 1491 1491 1490 1489 1489 1488 1486 1485 1486 1488 1489 1490 1492 1493 1495 1496 1497 1499 1501 1503 1505 1507 1509 1511 1513 1514 1515 1516 1516 1516 1517 1519 1524 1523 1518 1516 1513 1514 1514 1514 1517 1518 1519 1521 1522 1523 1525 1526 1529 1533 1534 1535 1536 1538 1539 1541 1543 1545 1548 1549 1550
1506 1506 1505 1504 1503 1502 1501 1500 1499 1498 1498 1497 1497 1496 1495 1495 1494 1493 1493 1493 1493 1493 1492 1492 1491 1491 1491 1490 1490 1489 1489 1488 1486 1484 1484 1485 1486 1487 1489 1491 1492 1494 1496 1497 1499 1502 1504 1505 1506 1508 1511 1513 1514 1515 1516 1516 1516 1516 1519 1523 1519 1514 1513 1513 1514 1514 1515 1517 1518 1520 1522 1523 1525 1526 1527 1529 1533 1535 1535 1536 1538 1539 1541 1544 1547 1549 1550 1551
1506 1505 1504 1504 1503 1502 1501 1500 1499 1498 1497 1496 1495 1495 1495 1494 1494 1493 1493 1492 1492 1492 1491 1491 1490 1490 1490 1489 1489 1489 1488 1487 1484 1483 1483 1484 1485 1486 1487 1490 1492 1494 1496 1498 1500 1503 1505 1506 1507 1509 1511 1513 1514 1515 1516 1516 1517 1517 1519 1520 1515 1513 1514 1513 1514 1514 1515 1516 1518 1520 1522 1525 1526 1527 1528 1528 1533 1536 1534 1534 1535 1537 1539 1543 1547 1549 1550 1552
1505 1504 1504 1503 1502 1501 1501 1500 1499 1498 1497 1495 1494 1494 1494 1493 1493 1493 1492 1492 1491 1491 1490 1490 1489 1489 1489 1489 1489 1488 1489 1487 1483 1481 1482 1483 1484 1485 1486 1489 1491 1493 1495 1498 1500 1503 1505 1506 1508 1510 1512 1513 1514 1516 1515 1515 1516 1518 1518 1515 1513 1513 1513 1513 1514 1515 1515 1516 1518 1520 1523 1526 1526 1528 1529 1529 1532 1534 1533 1533 1534 1535 1537 1541 1545 1549 1550 1552
1505 1504 1503 1502 1501 1501 1500 1499 1498 1497 1496 1495 1494 1493 1493 1492 1492 1492 1492 1491 1490 1490 1489 1489 1488 1489 1488 1488 1488 1488 1489 1486 1482 1482 1482 1482 1483 1484 1486 1488 1491 1493 1495 1497 1500 1502 1504 1506 1507 1510 1511 1512 1514 1515 1514 1514 1516 1520 1518 1513 1514 1513 1512 1513 1514 1515 1517 1518 1520 1521 1524 1526 1527 1529 1531 1531 1533 1534 1533 1534 1536 1537 1539 1542 1545 1548 1551 1552
1504 1503 1502 1501 1501 1500 1499 1498 1497 1495 1494 1494 1493 1492 1492 1491 1491 1491 1491 1490 1490 1489 1488 1488 1488 1488 1488 1488 1487 1488 1487 1484 1482 1483 1482 1482 1483 1484 1486 1488 1490 1493 1494 1497 1499 1500 1503 1505 1507 1509 1511 1513 1513 1513 1513 1513 1515 1519 1518 1514 1515 1514 1512 1513 1513 1516 1518 1520 1522 1523 1524 1526 1528 1530 1532 1533 1534 1536 1536 1536 1537 1540 1542 1544 1547 1549 1551 1553
1504 1503 1502 1501 1500 1499 1498 1497 1496 1494 1493 1492 1492 1491 1491 1490 1490 1490 1490 1490 1489 1488 1488 1487 1487 1487 1487 1487 1487 1487 1486 1483 1482 1483 1483 1483 1483 1484 1486 1488 1490 1492 1494 1496 1498 1500 1502 1504 1507 1508 1511 1512 1512 1512 1512 1514 1517 1518 1517 1516 1516 1515 1514 1513 1514 1517 1518 1520 1524 1525 1526 1528 1528 1529 1532 1534 1535 1537 1538 1538 1539 1541 1544 1546 1548 1550 1552 1554
1504 1503 1502 1501 1499 1498 1497 1496 1495 1493 1492 1491 1491 1490 1490 1490 1490 1489 1489 1489 1488 1487 1487 1487 1487 1487 1487 1487 1487 1486 1483 1482 1482 1483 1483 1484 1484 1485 1487 1488 1490 1492 1494 1497 1499 1501 1502 1503 1506 1507 1509 1510 1510 1511 1511 1514 1517 1516 1515 1516 1516 1516 1516 1515 1515 1517 1518 1521 1524 1526 1528 1529 1529 1530 1533 1535 1536 1538 1539 1540 1541 1542 1545 1547 1550 1552 1553 1555
1504 1503 1502 1501 1499 1498 1496 1495 1494 1492 1491 1490 1489 1489 1489 1489 1489 1489 1488 1488 1487 1487 1486 1486 1486 1486 1486 1486 1487 1486 1481 1481 1483 1483 1484 1484 1485 1486 1488 1489 1491 1492 1494 1496 1498 1500 1502 1503 1505 1507 1509 1509 1509 1510 1509 1512 1513 1511 1514 1515 1516 1516 1516 1516 1517 1518 1519 1521 1524 1527 1529 1530 1530 1532 1535 1536 1536 1538 1540 1541 1542 1543 1546 1548 1551 1553 1554 1556
1504 1503 1502 1501 1499 1498 1496 1494 1493 1491 1490 1489 1489 1489 1488 1488 1488 1488 1487 1487 1487 1486 1486 1486 1486 1486 1486 1485 1486 1484 1480 1481 1482 1482 1484 1485 1486 1487 1488 1490 1491 1493 1495 1496 1498 1500 1503 1505 1507 1508 1509 1509 1509 1508 1508 1509 1509 1510 1513 1516 1517 1517 1517 1518 1518 1520 1520 1523 1526 1526 1530 1531 1531 1533 1535 1536 1537 1539 1541 1542 1544 1545 1547 1549 1551 1554 1555 1557
1504 1503 1502 1501 1499 1497 1496 1494 1492 1490 1489 1489 1488 1488 1488 1488 1488 1487 1487 1486 1486 1486 1485 1485 1485 1485 1485 1485 1483 1481 1480 1481 1481 1482 1484 1485 1486 1488 1489 1490 1492 1494 1495 1496 1498 1500 1503 1506 1507 1509 1509 1509 1509 1508 1508 1507 1508 1511 1512 1518 1521 1518 1520 1520 1519 1521 1521 1524 1526 1525 1534 1536 1533 1535 1535 1535 1538 1539 1541 1543 1545 1546 1548 1550 1552 1554 1556 1558
1504 1503 1502 1500 1499 1497 1496 1493 1492 1490 1489 1489 1488 1488 1488 1487 1487 1487 1486 1486 1486 1485 1485 1484 1485 1485 1485 1483 1480 1479 1480 1480 1481 1482 1483 1485 1486 1488 1489 1491 1493 1495 1496 1498 1500 1502 1504 1506 1507 1508 1508 1508 1509 1509 1509 1507 1509 1513 1513 1518 1523 1524 1526 1523 1521 1522 1522 1526 1525 1525 1540 1543 1535 1534 1535 1536 1538 1540 1542 1544 1546 1548 1549 1551 1553 1555 1557 1559
1503 1502 1501 1500 1498 1497 1495 1493 1492 1490 1489 1489 1488 1488 1488 1487 1487 1486 1486 1486 1486 1485 1484 1484 1484 1484 1484 1481 1478 1478 1479 1479 1481 1482 1483 1485 1486 1487 1489 1491 1493 1495 1496 1499 1501 1503 1504 1506 1507 1508 1507 1508 1508 1508 1509 1509 1511 1514 1516 1519 1523 1529 1531 1525 1522 1522 1524 1528 1525 1526 1541 1543 1536 1534 1535 1537 1538 1539 1543 1545 1547 1548 1550 1552 1553 1555 1557 1559
1503 1502 1501 1500 1498 1497 1495 1494 1492 1490 1490 1489 1488 1488 1487 1487 1487 1486 1486 1486 1485 1485 1484 1484 1483 1484 1483 1479 1478 1478 1479 1480 1482 1482 1484 1484 1485 1487 1488 1490 1493 1494 1496 1499 1501 1503 1505 1506 1507 1507 1507 1507 1507 1509 1512 1513 1514 1515 1522 1529 1526 1528 1531 1526 1523 1522 1524 1528 1526 1530 1540 1541 1537 1535 1535 1538 1539 1539 1542 1545 1547 1549 1550 1552 1554 1556 1558 1559
1503 1502 1500 1499 1498 1496 1495 1494 1492 1491 1490 1489 1489 1488 1487 1487 1486 1486 1486 1485 1485 1485 1484 1484 1483 1484 1482 1478 1478 1479 1479 1481 1482 1483 1484 1484 1485 1486 1488 1490 1492 1494 1496 1499 1501 1502 1505 1506 1507 1507 1507 1507 1508 1511 1515 1520 1521 1518 1523 1532 1529 1528 1531 1528 1526 1524 1523 1527 1528 1531 1537 1540 1537 1535 1536 1538 1540 1541 1543 1545 1547 1549 1550 1552 1554 1556 1558 1560
1502 1501 1500 1499 1497 1496 1495 1494 1493 1491 1490 1489 1489 1488 1487 1486 1486 1486 1485 1485 1485 1484 1484 1483 1483 1483 1480 1477 1478 1479 1480 1481 1481 1482 1483 1484 1485 1485 1487 1489 1491 1494 1496 1499 1502 1502 1505 1506 1507 1508 1506 1508 1508 1510 1521 1531 1530 1524 1524 1529 1528 1528 1530 1530 1529 1526 1523 1526 1529 1530 1534 1537 1534 1534 1536 1538 1540 1542 1543 1546 1547 1549 1551 1552 1554 1556 1558 1560
1502 1501 1500 1499 1497 1496 1495 1494 1493 1491 1490 1490 1489 1488 1487 1486 1486 1485 1484 1485 1484 1484 1484 1483 1483 1483 1480 1477 1478 1479 1479 1480 1481 1481 1482 1483 1484 1485 1487 1488 1490 1493 1496 1499 1502 1503 1505 1506 1506 1508 1507 1509 1509 1511 1522 1529 1526 1525 1525 1527 1529 1528 1527 1529 1528 1525 1524 1527 1530 1532 1535 1536 1534 1534 1536 1538 1540 1542 1543 1546 1548 1549 1551 1552 1554 1556 1557 1559
1501 1500 1499 1498 1497 1496 1495 1494 1493 1492 1491 1490 1489 1488 1487 1486 1485 1484 1484 1484 1484 1483 1482 1481 1481 1481 1480 1478 1478 1479 1479 1479 1480 1481 1482 1483 1484 1486 1487 1489 1490 1493 1495 1499 1502 1503 1505 1506 1508 1511 1509 1509 1510 1510 1514 1514 1514 1517 1519 1523 1528 1530 1528 1526 1524 1523 1524 1529 1532 1533 1535 1536 1536 1536 1537 1539 1540 1542 1544 1546 1548 1549 1550 1552 1553 1555 1557 1558
1501 1500 1499 1498 1496 1495 1494 1494 1493 1492 1491 1490 1489 1488 1487 1487 1485 1484 1483 1482 1482 1481 1480 1479 1479 1479 1478 1477 1477 1478 1478 1479 1480 1480 1482 1483 1484 1486 1487 1490 1491 1493 1495 1498 1502 1502 1504 1508 1510 1510 1508 1506 1507 1508 1508 1508 1510 1513 1516 1521 1525 1528 1528 1524 1523 1524 1524 1531 1534 1532 1533 1535 1535 1536 1537 1540 1541 1542 1544 1546 1547 1549 1549 1551 1552 1554 1556 1558
1500 1499 1499 1497 1496 1495 1494 1493 1493 1492 1491 1490 1489 1489 1488 1488 1488 1486 1483 1480 1479 1479 1478 1477 1478 1477 1476 1476 1477 1478 1478 1478 1480 1481 1482 1483 1485 1486 1488 1490 1491 1494 1496 1497 1501 1502 1504 1510 1509 1506 1505 1504 1504 1506 1506 1508 1509 1511 1516 1521 1525 1527 1528 1523 1523 1526 1525 1530 1536 1532 1534 1536 1535 1536 1538 1539 1541 1541 1543 1544 1546 1548 1549 1550 1552 1554 1556 1557
1500 1499 1498 1497 1496 1494 1493 1493 1492 1492 1491 1491 1490 1489 1489 1489 1488 1487 1485 1481 1477 1476 1477 1476 1476 1476 1475 1476 1477 1477 1478 1478 1479 1481 1482 1484 1485 1486 1488 1490 1492 1495 1497 1498 1501 1504 1508 1509 1505 1504 1504 1504 1505 1505 1506 1508 1510 1512 1515 1521 1526 1527 1527 1526 1525 1527 1528 1533 1537 1535 1537 1538 1536 1536 1537 1538 1540 1541 1542 1543 1545 1546 1548 1549 1551 1553 1555 1556
1499 1498 1497 1497 1495 1494 1493 1492 1492 1491 1491 1491 1490 1489 1489 1488 1487 1486 1486 1484 1478 1475 1475 1475 1475 1474 1474 1475 1476 1476 1478 1478 1479 1481 1482 1483 1484 1486 1488 1489 1493 1495 1497 1499 1502 1508 1511 1507 1502 1503 1504 1504 1506 1507 1507 1509 1511 1513 1515 1521 1527 1525 1526 1530 1529 1529 1531 1533 1536 1536 1538 1540 1538 1538 1539 1539 1540 1540 1542 1543 1544 1545 1546 1547 1549 1551 1553 1555
1498 1497 1497 1496 1495 1494 1493 1492 1492 1491 1491 1490 1490 1489 1488 1488 1487 1486 1485 1484 1481 1475 1473 1474 1474 1473 1474 1474 1475 1476 1477 1478 1479 1480 1481 1483 1484 1486 1488 1489 1493 1497 1499 1500 1501 1506 1507 1503 1501 1503 1504 1504 1507 1508 1508 1510 1512 1513 1514 1517 1522 1523 1522 1526 1529 1531 1532 1533 1532 1535 1543 1544 1540 1541 1541 1540 1540 1540 1541 1542 1544 1545 1545 1546 1549 1551 1553 1554
1497 1496 1496 1495 1495 1494 1493 1492 1492 1491 1491 1490 1490 1489 1488 1487 1486 1485 1485 1486 1483 1476 1473 1474 1474 1473 1473 1474 1475 1476 1476 1478 1479 1480 1481 1482 1484 1486 1488 1489 1493 1498 1500 1500 1502 1504 1503 1500 1500 1503 1505 1505 1507 1509 1508 1509 1513 1515 1513 1511 1515 1519 1520 1523 1528 1532 1537 1540 1533 1533 1547 1549 1540 1540 1541 1539 1541 1541 1541 1541 1542 1543 1545 1547 1549 1550 1552 1554
1496 1495 1494 1495 1494 1493 1493 1492 1491 1491 1490 1490 1490 1489 1488 1487 1486 1486 1486 1489 1486 1477 1474 1475 1474 1473 1473 1474 1475 1475 1479 1479 1478 1481 1482 1482 1484 1485 1488 1491 1492 1496 1499 1498 1501 1502 1501 1499 1499 1502 1505 1506 1507 1508 1507 1507 1513 1516 1509 1505 1510 1515 1520 1524 1526 1531 1539 1541 1532 1530 1544 1550 1544 1541 1539 1539 1542 1541 1540 1541 1541 1542 1544 1545 1547 1549 1551 1553
1495 1494 1494 1494 1493 1493 1493 1491 1491 1491 1489 1490 1489 1488 1488 1486 1487 1485 1486 1494 1492 1480 1476 1476 1474 1474 1474 1474 1474 1477 1483 1482 1478 1481 1481 1483 1485 1484 1489 1492 1492 1495 1494 1497 1504 1502 1499 1499 1500 1501 1504 1507 1508 1507 1506 1505 1512 1514 1504 1503 1510 1514 1520 1523 1524 1530 1534 1534 1534 1533 1538 1546 1548 1543 1538 1539 1543 1543 1541 1540 1539 1540 1542 1543 1545 1547 1550 1551
1494 1493 1493 1493 1493 1493 1492 1491 1491 1489 1489 1489 1488 1488 1487 1486 1487 1485 1490 1503 1496 1480 1476 1476 1474 1475 1475 1475 1475 1476 1481 1480 1480 1482 1481 1483 1485 1484 1489 1491 1491 1494 1491 1497 1507 1502 1496 1499 1500 1500 1503 1507 1506 1503 1502 1503 1508 1509 1503 1504 1509 1513 1519 1521 1525 1532 1531 1534 1543 1539 1537 1547 1550 1542 1538 1540 1543 1544 1541 1538 1538 1538 1540 1542 1544 1546 1548 1550
1493 1492 1492 1492 1492 1491 1491 1491 1490 1489 1489 1488 1487 1487 1486 1485 1486 1485 1495 1504 1492 1478 1477 1476 1474 1476 1475 1475 1477 1476 1478 1479 1480 1482 1481 1483 1485 1484 1488 1489 1489 1492 1491 1495 1501 1498 1495 1496 1495 1497 1501 1503 1500 1498 1498 1501 1505 1505 1503 1506 1511 1516 1521 1524 1530 1534 1533 1540 1547 1541 1538 1547 1551 1544 1541 1543 1542 1540 1538 1536 1536 1537 1539 1541 1542 1544 1547 1549
1492 1491 1491 1491 1491 1491 1490 1490 1489 1489 1488 1487 1487 1486 1484 1485 1486 1492 1504 1504 1489 1480 1478 1475 1475 1476 1476 1477 1478 1477 1478 1479 1479 1480 1481 1483 1484 1485 1487 1487 1488 1491 1493 1494 1496 1494 1492 1492 1492 1493 1495 1495 1494 1495 1496 1498 1502 1502 1505 1511 1517 1522 1524 1527 1531 1531 1540 1547 1541 1535 1536 1542 1549 1545 1539 1537 1534 1532 1534 1536 1536 1536 1538 1540 1541 1543 1545 1547
1491 1490 1490 1490 1490 1490 1490 1489 1489 1488 1487 1486 1485 1484 1484 1485 1488 1500 1508 1497 1487 1484 1478 1476 1477 1476 1477 1480 1480 1479 1479 1479 1479 1480 1483 1484 1485 1486 1487 1489 1491 1493 1497 1497 1495 1494 1492 1493 1492 1489 1489 1489 1491 1495 1496 1497 1498 1501 1508 1513 1523 1530 1530 1535 1537 1536 1549 1550 1532 1529 1533 1538 1547 1543 1533 1529 1526 1527 1531 1533 1534 1535 1537 1538 1539 1541 1543 1545
1490 1489 1489 1489 1489 1489 1489 1489 1488 1487 1486 1485 1484 1483 1484 1489 1495 1503 1501 1491 1488 1486 1479 1478 1478 1476 1478 1479 1480 1480 1479 1481 1480 1480 1484 1486 1488 1488 1489 1491 1492 1498 1505 1502 1498 1495 1492 1490 1489 1486 1485 1486 1491 1497 1500 1501 1499 1502 1511 1516 1530 1544 1545 1549 1553 1550 1554 1546 1529 1528 1534 1539 1542 1536 1530 1527 1524 1525 1526 1527 1530 1532 1534 1535 1537 1540 1542 1544
1489 1488 1489 1489 1489 1489 1489 1488 1487 1486 1485 1484 1484 1481 1484 1495 1502 1500 1495 1491 1488 1483 1478 1478 1477 1477 1478 1479 1481 1480 1480 1482 1481 1481 1484 1486 1489 1489 1489 1490 1490 1495 1503 1503 1501 1498 1494 1490 1486 1486 1486 1483 1487 1495 1502 1506 1504 1506 1511 1515 1530 1547 1556 1564 1565 1559 1554 1542 1529 1528 1533 1540 1538 1530 1528 1526 1522 1522 1522 1525 1529 1530 1532 1534 1537 1540 1541 1543
1488 1488 1488 1488 1488 1488 1488 1488 1487 1486 1485 1483 1483 1482 1488 1501 1503 1495 1492 1489 1484 1479 1478 1479 1478 1478 1480 1481 1482 1480 1481 1484 1482 1482 1485 1487 1491 1493 1491 1491 1490 1491 1495 1500 1501 1500 1502 1499 1487 1484 1485 1481 1482 1487 1492 1498 1502 1504 1503 1506 1518 1529 1541 1554 1557 1552 1548 1543 1536 1533 1537 1543 1538 1530 1525 1521 1520 1520 1521 1525 1528 1529 1532 1534 1537 1539 1540 1543
1487 1487 1488 1488 1488 1488 1488 1488 1487 1486 1485 1483 1482 1486 1496 1504 1501 1495 1492 1486 1482 1480 1480 1479 1478 1481 1484 1483 1482 1480 1481 1484 1484 1485 1488 1490 1494 1496 1494 1491 1491 1491 1494 1500 1500 1499 1505 1500 1483 1478 1479 1478 1480 1481 1481 1491 1503 1504 1498 1504 1513 1511 1514 1529 1536 1534 1536 1544 1546 1540 1538 1538 1532 1525 1520 1517 1519 1520 1521 1525 1527 1530 1532 1534 1537 1538 1539 1542
1487 1487 1488 1488 1488 1488 1488 1488 1487 1486 1485 1483 1485 1492 1498 1498 1494 1493 1488 1482 1481 1482 1481 1481 1482 1485 1488 1486 1484 1482 1479 1482 1485 1488 1492 1495 1496 1496 1495 1492 1491 1491 1492 1496 1498 1498 1503 1495 1479 1477 1478 1475 1477 1478 1477 1486 1498 1503 1503 1506 1506 1499 1501 1516 1529 1530 1531 1542 1547 1542 1539 1537 1531 1527 1521 1518 1520 1521 1522 1524 1525 1529 1531 1533 1536 1537 1539 1541
1487 1487 1487 1488 1488 1488 1488 1488 1487 1487 1485 1484 1488 1495 1495 1491 1488 1487 1484 1480 1481 1481 1481 1486 1488 1490 1492 1490 1488 1485 1481 1483 1486 1490 1495 1499 1496 1495 1494 1492 1490 1490 1489 1492 1493 1494 1499 1494 1481 1478 1479 1474 1473 1476 1477 1477 1484 1497 1505 1501 1497 1499 1502 1509 1527 1539 1539 1544 1546 1543 1543 1541 1539 1535 1527 1523 1524 1523 1524 1524 1525 1528 1529 1532 1536 1537 1539 1541
1487 1487 1487 1488 1488 1488 1488 1487 1487 1487 1486 1487 1492 1494 1492 1489 1485 1484 1482 1480 1480 1480 1483 1490 1491 1490 1493 1493 1491 1487 1485 1487 1489 1492 1497 1499 1497 1495 1494 1493 1490 1489 1488 1489 1491 1490 1495 1496 1485 1476 1479 1476 1471 1477 1484 1481 1478 1485 1490 1489 1494 1508 1512 1510 1524 1537 1542 1549 1551 1547 1546 1541 1537 1535 1529 1527 1527 1524 1524 1525 1525 1527 1528 1531 1535 1537 1539 1541
1487 1487 1487 1487 1487 1488 1487 1487 1487 1486 1486 1491 1495 1493 1491 1488 1484 1483 1482 1481 1480 1481 1484 1489 1489 1489 1491 1493 1492 1489 1488 1489 1491 1495 1499 1500 1499 1495 1494 1494 1491 1489 1488 1488 1490 1490 1492 1499 1492 1478 1476 1477 1474 1479 1488 1488 1483 1481 1483 1487 1491 1500 1505 1508 1516 1522 1530 1547 1552 1548 1547 1540 1531 1529 1528 1527 1527 1524 1524 1526 1527 1527 1528 1531 1535 1537 1539 1540
1487 1487 1487 1487 1487 1487 1487 1487 1487 1487 1488 1493 1495 1492 1490 1488 1485 1483 1482 1481 1481 1481 1484 1487 1487 1489 1490 1490 1491 1490 1489 1490 1492 1495 1499 1500 1499 1495 1493 1494 1492 1489 1488 1487 1489 1490 1492 1499 1496 1482 1477 1479 1481 1482 1484 1485 1486 1486 1489 1493 1494 1496 1498 1504 1513 1516 1522 1537 1546 1546 1545 1537 1528 1526 1526 1525 1525 1524 1524 1525 1527 1528 1530 1532 1534 1536 1538 1540
1487 1487 1487 1487 1487 1487 1487 1487 1488 1489 1491 1493 1494 1491 1489 1488 1485 1484 1483 1481 1482 1482 1483 1485 1486 1488 1490 1491 1491 1490 1490 1492 1493 1495 1498 1499 1500 1498 1494 1493 1492 1490 1489 1488 1489 1490 1492 1497 1497 1489 1484 1484 1483 1481 1479 1479 1480 1482 1487 1489 1492 1495 1499 1508 1520 1522 1520 1525 1534 1536 1534 1532 1528 1525 1523 1523 1523 1523 1524 1524 1527 1528 1529 1532 1534 1535 1537 1539
1488 1488 1488 1487 1488 1488 1487 1489 1490 1491 1492 1491 1491 1490 1488 1488 1487 1485 1484 1483 1483 1483 1483 1484 1486 1488 1490 1490 1491 1491 1492 1495 1496 1497 1498 1498 1499 1498 1494 1491 1491 1490 1489 1490 1491 1490 1490 1494 1495 1491 1487 1485 1482 1479 1480 1480 1478 1478 1482 1485 1488 1491 1493 1503 1515 1521 1522 1524 1527 1530 1530 1529 1527 1523 1522 1523 1522 1523 1524 1524 1525 1527 1528 1530 1532 1534 1536 1537
1488 1488 1488 1487 1488 1488 1488 1490 1491 1491 1491 1489 1489 1489 1488 1488 1488 1486 1485 1485 1485 1485 1485 1486 1487 1488 1489 1489 1490 1491 1493 1496 1498 1497 1497 1498 1497 1495 1494 1491 1490 1489 1489 1491 1491 1488 1490 1496 1497 1491 1487 1484 1480 1478 1478 1479 1479 1481 1482 1485 1488 1488 1489 1494 1500 1507 1518 1524 1525 1529 1533 1531 1526 1523 1523 1523 1523 1524 1524 1524 1525 1527 1528 1529 1530 1532 1534 1536
1489 1488 1488 1488 1488 1488 1489 1492 1492 1492 1491 1490 1489 1489 1489 1489 1489 1488 1488 1488 1487 1487 1488 1489 1489 1488 1489 1489 1490 1492 1494 1496 1498 1498 1497 1498 1496 1494 1493 1491 1490 1490 1490 1491 1491 1488 1492 1501 1501 1497 1498 1496 1492 1490 1487 1482 1482 1486 1487 1487 1487 1488 1489 1493 1498 1502 1512 1521 1520 1521 1530 1532 1526 1524 1525 1524 1524 1524 1525 1526 1527 1527 1528 1529 1530 1532 1534 1536
1489 1489 1488 1488 1488 1488 1489 1491 1492 1492 1493 1492 1492 1491 1490 1490 1490 1490 1490 1490 1489 1489 1489 1490 1490 1489 1490 1490 1491 1493 1494 1494 1497 1498 1497 1497 1495 1493 1493 1492 1491 1490 1490 1490 1489 1487 1493 1502 1501 1500 1506 1510 1509 1505 1498 1492 1490 1490 1490 1489 1489 1490 1488 1490 1500 1505 1510 1519 1519 1516 1525 1532 1527 1525 1527 1526 1525 1525 1525 1527 1528 1528 1529 1529 1530 1533 1534 1535
1490 1490 1490 1489 1488 1489 1490 1491 1491 1491 1492 1493 1494 1494 1493 1492 1492 1491 1490 1491 1491 1490 1490 1491 1491 1490 1491 1492 1494 1496 1496 1495 1496 1497 1498 1498 1496 1494 1493 1492 1491 1490 1490 1489 1487 1488 1494 1500 1501 1500 1503 1507 1507 1503 1498 1496 1495 1491 1490 1490 1491 1492 1488 1488 1499 1504 1505 1515 1522 1520 1523 1528 1528 1527 1528 1527 1525 1525 1526 1527 1529 1529 1529 1530 1531 1533 1533 1534
1491 1493 1493 1492 1490 1490 1490 1491 1491 1492 1491 1492 1494 1495 1495 1494 1493 1492 1491 1491 1492 1492 1492 1494 1494 1493 1494 1495 1497 1500 1500 1498 1498 1499 1501 1500 1497 1495 1494 1492 1492 1491 1490 1489 1487 1489 1494 1500 1501 1500 1500 1502 1503 1500 1497 1496 1495 1492 1491 1491 1491 1491 1489 1489 1494 1498 1501 1510 1518 1520 1521 1523 1524 1524 1525 1526 1526 1526 1526 1527 1529 1530 1530 1531 1532 1533 1533 1535
1493 1494 1495 1494 1494 1494 1493 1492 1492 1492 1491 1491 1493 1495 1496 1496 1496 1496 1494 1493 1493 1493 1493 1496 1498 1498 1497 1496 1498 1502 1503 1502 1502 1503 1503 1501 1499 1497 1494 1493 1493 1491 1490 1491 1489 1490 1497 1503 1503 1499 1497 1498 1500 1500 1498 1494 1494 1495 1495 1493 1493 1492 1489 1489 1494 1498 1498 1498 1503 1512 1518 1519 1520 1521 1522 1524 1525 1526 1527 1529 1530 1531 1531 1532 1533 1534 1534 1535
1494 1495 1495 1494 1494 1495 1495 1493 1492 1493 1492 1491 1493 1496 1497 1497 1498 1498 1497 1495 1496 1496 1496 1500 1503 1501 1499 1497 1498 1503 1506 1505 1505 1505 1503 1502 1501 1500 1499 1498 1495 1493 1492 1492 1492 1494 1498 1502 1504 1501 1495 1494 1498 1500 1498 1494 1493 1496 1498 1497 1496 1496 1493 1492 1498 1503 1501 1499 1501 1509 1516 1518 1517 1518 1521 1523 1526 1527 1528 1530 1531 1532 1533 1533 1534 1535 1536 1537
1495 1496 1495 1494 1494 1494 1494 1494 1492 1492 1492 1491 1494 1496 1498 1498 1498 1498 1498 1499 1500 1500 1499 1502 1504 1502 1501 1499 1499 1503 1505 1504 1505 1504 1502 1502 1502 1501 1503 1503 1500 1496 1494 1494 1496 1495 1495 1501 1505 1501 1496 1496 1499 1498 1497 1497 1496 1495 1497 1498 1498 1500 1499 1498 1500 1502 1504 1509 1510 1511 1517 1521 1518 1517 1520 1523 1526 1528 1529 1530 1532 1533 1533 1534 1535 1536 1537 1538
1496 1496 1496 1495 1494 1494 1494 1494 1494 1494 1493 1493 1495 1496 1498 1499 1499 1498 1500 1501 1501 1501 1501 1502 1504 1503 1502 1502 1502 1504 1504 1502 1502 1502 1501 1501 1501 1501 1501 1502 1501 1500 1498 1499 1500 1498 1498 1503 1504 1500 1500 1502 1501 1500 1499 1497 1494 1493 1496 1500 1501 1502 1503 1502 1501 1500 1503 1510 1515 1516 1518 1518 1514 1515 1519 1523 1525 1527 1529 1530 1532 1534 1535 1535 1535 1537 1539 1539
1497 1496 1496 1496 1495 1495 1495 1495 1495 1495 1494 1494 1495 1495 1497 1499 1498 1498 1501 1503 1502 1501 1501 1502 1502 1503 1504 1504 1504 1504 1503 1502 1502 1502 1501 1501 1501 1500 1501 1501 1500 1500 1501 1502 1503 1504 1506 1506 1504 1504 1507 1506 1504 1504 1501 1496 1499 1503 1504 1505 1504 1503 1503 1502 1501 1500 1500 1504 1511 1514 1510 1507 1508 1512 1517 1521 1524 1526 1528 1530 1531 1533 1535 1536 1537 1539 1540 1541